RH
17 16 16 16 16 17 18 19 19 19 18 16 16 15 15 15 15 15 14 14 14 15 14 14 13 12 12 11 11 12 13 12 8 8 10 12 14 13 12 11 12 12 10 10 12 12 10 8 8 9 9 10 12 12 13 11 12 17 19 18 17 14 13 13 11 11 12 11 16 19 18 16 17 23 24 22 22 21 26 29 25 23 24 22 22 26 25 27
17 16 16 16 15 16 17 18 19 18 18 17 16 15 15 14 14 14 14 15 15 15 15 14 13 12 12 10 10 11 13 13 7 8 12 13 12 11 11 11 12 12 11 12 13 10 8 8 7 8 8 10 12 12 12 11 11 16 18 17 15 13 13 13 10 11 11 9 12 16 17 15 15 18 20 19 18 19 24 27 26 25 24 22 23 25 26 27
17 17 16 15 15 15 16 17 18 18 18 17 14 13 13 13 13 14 14 15 15 15 15 15 13 13 12 10 12 13 15 13 6 8 13 13 11 11 11 11 12 11 10 12 12 10 9 8 8 8 8 9 11 11 12 12 12 14 16 16 14 12 12 11 11 11 10 10 11 13 17 17 15 17 19 19 17 18 22 22 24 26 24 21 23 25 26 26
18 17 16 15 15 14 15 16 17 17 17 14 12 11 12 13 13 13 14 15 15 15 15 14 14 13 12 12 12 14 17 13 7 10 13 12 10 10 11 11 12 11 11 12 12 12 10 9 8 8 9 10 11 11 11 12 13 13 14 15 13 11 10 11 12 12 11 12 10 12 17 18 15 17 19 19 18 17 17 18 19 22 21 19 21 24 26 25
18 17 16 15 15 15 14 16 16 16 17 13 10 11 12 13 14 13 12 14 15 14 14 13 13 12 12 13 10 14 20 16 12 12 12 11 10 12 11 10 12 12 11 11 11 11 10 9 8 9 11 12 12 12 12 11 12 13 13 13 12 10 10 12 13 13 13 11 11 14 16 15 16 19 19 18 18 15 17 20 19 17 16 16 19 23 26 25
18 17 16 16 16 16 15 15 16 16 16 13 9 10 11 12 14 13 11 12 14 14 14 13 11 10 12 13 10 15 19 16 14 12 11 11 11 13 11 10 12 12 11 11 11 10 9 8 8 11 11 11 13 13 12 11 11 13 13 12 11 10 10 12 13 15 15 11 12 14 15 16 19 19 17 18 17 14 21 26 25 25 22 18 19 23 25 25
17 16 16 17 16 17 16 16 16 15 16 14 11 10 11 12 12 13 13 12 13 13 14 13 10 9 11 12 13 16 13 11 13 12 12 11 12 13 11 12 13 13 12 11 9 8 8 8 9 11 11 13 13 12 13 11 10 13 14 12 11 11 12 13 14 15 15 13 13 15 17 18 18 17 16 19 17 14 22 29 31 34 29 22 21 24 25 25
15 14 14 16 16 16 17 17 17 17 17 16 14 10 11 12 11 12 13 13 13 13 13 12 11 11 12 15 18 14 8 10 13 12 12 12 12 12 12 13 13 14 13 11 9 8 8 8 9 10 12 16 15 15 17 12 10 14 15 13 11 12 13 14 15 15 15 14 14 16 17 15 14 16 19 20 18 14 18 25 29 31 29 25 23 24 25 25
13 13 13 13 14 15 16 17 17 17 17 17 15 12 12 14 12 10 11 12 12 11 12 11 11 11 12 15 16 11 10 13 13 13 12 11 12 12 13 14 15 14 12 13 11 9 9 8 9 9 12 16 15 20 22 16 16 19 17 13 11 12 13 14 15 14 15 14 15 16 15 14 14 17 18 15 14 13 12 19 24 26 26 25 23 23 24 23
14 13 12 12 14 15 16 16 15 15 16 16 15 14 14 14 11 9 9 12 11 11 11 11 11 11 13 15 12 11 12 13 14 14 12 11 12 12 14 14 15 15 13 13 12 11 10 9 9 9 12 16 17 23 24 21 23 21 18 15 12 13 13 14 14 14 15 15 16 17 14 13 16 19 16 12 14 13 13 17 21 23 23 22 22 23 23 23
16 14 14 14 14 16 15 15 14 14 14 15 15 14 14 13 12 10 9 10 9 11 11 10 12 11 13 12 9 11 12 14 15 14 12 11 12 13 13 14 15 16 14 13 14 15 13 11 10 11 16 15 17 22 24 26 24 18 18 18 15 13 12 13 14 14 15 15 16 16 16 13 18 23 16 13 16 15 15 17 19 21 22 20 20 21 22 23
18 16 16 16 16 16 14 13 12 13 14 13 14 13 14 13 12 11 9 9 9 10 10 9 12 13 14 11 9 12 13 15 16 15 14 11 12 13 13 15 15 16 16 14 15 17 16 15 12 15 20 17 18 23 23 25 21 17 18 19 18 15 14 13 12 14 14 15 16 16 18 14 17 22 15 12 16 17 16 16 17 20 20 19 20 20 21 22
17 16 17 16 15 15 14 13 13 13 12 12 14 13 13 13 13 12 9 9 8 9 10 11 13 15 17 15 12 13 13 15 15 16 16 12 13 14 14 16 15 15 17 14 15 17 16 17 14 18 25 21 24 28 23 21 19 18 19 18 17 16 17 13 11 15 15 16 16 17 18 12 13 17 13 13 16 17 17 16 16 18 18 19 20 21 20 21
14 14 15 15 15 14 14 13 12 13 12 12 13 12 12 12 13 12 10 9 11 13 13 13 14 15 19 16 13 13 13 14 15 17 16 14 14 13 15 17 16 15 16 16 17 18 17 17 16 20 27 25 26 29 23 19 19 20 23 22 18 16 18 17 14 16 16 16 16 18 20 13 10 12 12 15 16 16 16 14 14 15 17 19 20 21 20 20
13 13 14 15 14 14 14 13 12 13 12 12 12 12 13 13 13 12 10 10 13 14 13 18 19 17 18 15 11 13 14 14 15 18 17 17 17 14 13 15 16 15 15 16 16 19 20 17 17 20 25 27 27 29 24 19 18 20 21 20 18 16 17 18 16 15 16 17 16 20 22 15 10 10 13 16 16 15 14 13 13 13 15 17 19 20 20 19
13 12 13 14 14 12 12 12 12 11 11 12 12 12 12 12 13 13 11 10 12 12 13 24 23 16 17 14 11 13 14 14 15 18 18 19 19 16 14 13 15 14 13 15 15 17 16 16 24 26 23 24 24 22 19 17 18 19 19 15 15 15 14 16 20 21 20 20 19 22 22 16 12 12 14 17 16 15 14 13 13 12 13 15 17 18 19 19
14 12 12 13 12 11 11 10 11 12 12 11 11 12 13 14 14 13 12 10 12 12 13 20 18 14 17 14 11 12 14 15 16 19 19 19 20 18 15 12 12 12 12 13 13 15 13 16 28 27 20 19 19 18 17 16 15 17 18 15 12 13 13 16 23 27 25 24 23 22 23 20 15 12 13 15 15 15 15 14 14 13 14 14 15 17 17 18
14 11 11 11 11 10 11 11 13 14 13 12 13 15 14 14 14 14 14 12 13 13 12 15 15 18 21 14 11 14 14 16 17 19 19 18 20 19 18 15 12 12 11 12 12 12 12 16 22 20 17 17 17 17 17 17 19 20 19 16 13 14 15 13 22 29 27 30 28 22 23 21 16 14 12 12 13 15 15 14 14 14 14 14 15 16 17 17
13 12 11 10 11 11 11 13 15 14 13 13 13 14 17 18 19 19 18 17 19 21 22 24 21 23 23 14 13 16 16 17 17 18 20 20 18 19 19 16 14 14 14 15 12 13 16 18 20 18 16 17 18 17 16 20 25 24 22 22 19 19 17 13 26 36 30 30 29 22 22 20 16 15 13 11 11 14 14 14 14 15 15 16 16 16 17 18
11 11 11 11 11 10 10 12 13 13 13 12 13 18 22 21 21 21 21 22 27 30 31 30 25 21 18 14 15 17 16 16 17 18 20 20 19 19 17 14 15 14 18 24 21 23 26 20 17 18 18 18 19 20 20 21 24 23 24 25 23 22 18 14 28 39 32 28 23 19 21 19 17 15 13 12 11 12 14 14 14 15 16 17 17 18 19 19
9 9 10 9 9 8 9 10 12 13 12 10 15 22 23 24 25 24 25 28 32 35 32 28 24 19 16 16 18 20 17 14 15 17 19 22 20 17 14 13 16 16 22 33 29 29 28 19 18 21 20 20 22 24 25 25 27 26 25 22 20 20 17 18 31 36 31 29 22 17 20 19 17 15 12 12 12 13 14 15 16 16 17 18 18 20 20 20
8 8 8 7 7 7 7 9 12 13 12 13 20 25 27 33 32 24 26 29 31 35 30 26 24 18 16 18 21 22 18 13 14 15 20 22 17 16 18 14 16 20 26 29 26 24 22 21 26 25 20 23 27 29 29 30 31 27 23 19 17 18 17 24 36 35 29 28 21 18 21 19 16 14 13 13 13 15 16 18 20 20 20 18 18 21 21 21
7 7 7 7 6 7 7 9 12 12 13 19 29 33 33 34 27 22 28 27 28 34 31 27 24 17 15 18 22 23 17 17 19 16 22 24 17 22 27 19 17 22 24 22 21 18 18 24 31 27 25 27 29 31 31 31 29 24 20 17 17 19 19 23 33 33 27 26 25 26 28 24 19 16 15 15 16 18 19 21 23 24 23 21 21 24 23 21
8 7 7 7 6 8 9 9 13 15 13 20 28 31 30 28 24 28 35 28 26 33 31 29 26 18 17 18 22 24 19 23 23 17 22 26 21 26 30 27 24 22 23 26 25 21 23 29 31 31 30 28 28 32 32 27 21 19 20 21 19 20 23 21 25 27 23 27 33 32 28 24 20 16 14 17 19 20 21 21 22 24 25 26 25 24 23 23
8 7 7 7 6 8 9 12 18 15 17 27 30 30 31 29 27 30 33 26 24 32 35 34 28 19 19 19 21 25 22 24 23 20 25 25 24 30 31 30 26 22 28 33 27 24 30 34 34 34 30 27 29 29 28 25 18 15 22 28 24 21 25 24 24 25 21 25 33 31 25 21 16 13 14 17 17 18 19 19 19 20 21 23 22 20 21 21
8 8 8 7 7 8 10 20 21 13 25 38 29 28 34 30 25 26 28 21 18 29 36 32 25 20 22 21 21 24 25 25 21 21 27 27 31 37 33 29 27 28 35 33 25 28 35 36 36 35 30 31 33 26 25 26 17 17 27 32 27 23 26 27 27 27 23 22 27 28 26 24 17 14 15 16 16 17 18 17 17 18 18 20 21 20 21 22
9 8 8 7 8 9 13 20 18 18 38 42 26 26 32 25 23 27 28 19 16 28 32 27 23 22 26 25 22 24 28 28 24 23 26 27 32 35 28 28 29 30 35 29 20 30 40 37 35 34 31 32 30 24 24 23 18 24 35 33 28 27 29 30 30 28 25 23 25 26 27 27 22 18 16 16 17 18 18 19 19 20 20 21 22 23 23 24
9 8 9 9 8 10 13 17 24 36 42 35 28 29 28 25 28 31 26 15 17 29 30 27 24 21 24 25 21 26 30 30 30 28 26 26 31 31 26 28 30 30 38 30 17 31 44 38 35 34 30 27 24 24 26 25 22 30 37 33 29 31 32 32 32 27 25 28 27 27 29 29 23 18 17 16 18 20 20 21 23 23 23 24 24 24 23 24
9 9 9 9 10 12 12 15 28 41 37 30 30 26 24 29 33 30 19 13 22 30 29 29 26 23 28 29 26 28 30 30 32 28 26 25 26 29 31 35 35 32 39 35 23 34 44 39 40 36 28 25 24 27 30 28 28 34 39 37 35 37 35 34 31 26 28 34 31 27 27 26 22 16 14 17 19 22 21 22 24 24 24 25 25 24 23 23
9 10 9 10 14 15 16 20 24 29 30 28 26 23 30 36 32 23 13 15 27 30 28 30 29 30 32 30 27 28 28 29 32 31 29 29 25 27 36 43 41 32 34 35 30 38 46 46 49 43 31 27 26 31 35 33 34 38 38 35 34 34 33 30 27 25 31 34 30 28 25 25 24 16 13 20 23 22 21 22 25 25 24 25 24 24 25 25
9 11 10 11 15 14 22 30 24 22 27 26 25 29 36 34 23 15 12 22 32 29 29 32 33 35 33 28 26 26 29 29 32 32 29 29 27 25 31 34 32 27 26 27 31 42 48 44 45 45 39 32 27 32 39 38 36 34 30 28 27 25 26 27 26 28 34 32 28 27 25 26 27 19 17 26 28 24 25 26 27 26 24 24 24 24 26 25
10 12 13 13 13 13 22 28 22 24 27 27 32 31 28 23 14 11 14 25 30 26 30 34 35 37 34 33 31 30 33 33 33 35 31 28 25 25 30 28 23 22 18 17 24 35 42 40 40 43 43 37 30 29 35 37 35 30 25 23 26 25 24 28 28 27 30 30 28 25 25 29 24 18 21 27 28 27 28 28 27 26 24 25 24 22 23 23
10 14 16 15 14 14 19 21 21 25 23 27 34 26 18 14 12 18 17 16 23 29 36 40 37 37 35 33 32 34 38 38 35 36 39 37 28 27 38 37 32 27 17 15 18 19 28 39 42 42 40 39 33 24 25 28 26 25 23 22 27 29 31 35 30 26 28 29 26 24 28 31 23 18 23 25 25 26 26 27 27 27 26 26 24 22 22 22
12 18 19 15 15 18 17 17 20 21 22 30 30 20 15 9 13 26 21 15 26 34 40 42 35 35 35 30 31 35 34 34 35 34 35 35 24 20 30 36 38 31 18 17 18 16 21 30 37 39 36 37 34 27 27 27 22 22 22 22 26 28 32 37 33 31 35 31 26 29 32 30 25 24 25 23 24 25 26 27 28 28 27 26 24 23 23 22
14 20 19 14 18 21 17 17 19 19 25 31 23 14 13 8 9 17 18 21 28 28 35 41 35 29 28 27 32 38 34 29 32 31 27 24 19 17 21 27 34 30 22 20 19 20 19 22 35 40 34 32 32 34 36 32 25 22 21 23 27 26 26 30 30 31 36 36 32 35 33 23 20 25 25 24 25 25 25 27 27 28 27 26 26 25 24 23
18 23 19 15 19 22 19 18 19 22 28 28 18 12 12 12 12 17 29 37 33 29 31 33 31 22 17 21 26 33 36 30 25 23 20 20 22 25 25 27 34 33 26 22 21 22 19 22 36 40 33 31 31 35 38 34 28 24 22 25 28 27 25 30 32 28 31 38 34 31 30 21 19 26 25 24 25 25 25 28 28 27 26 26 26 25 24 24
24 28 22 18 20 22 22 20 21 25 28 22 16 15 17 23 29 32 40 43 37 36 28 18 23 21 15 18 18 22 29 27 23 19 16 20 26 29 29 33 41 37 29 26 23 23 22 23 33 36 34 36 37 38 38 37 35 28 25 27 28 29 28 29 35 34 35 39 31 25 30 27 25 29 28 24 26 26 25 29 30 27 25 25 24 24 24 23
28 29 27 23 18 21 24 22 23 24 23 20 15 19 26 32 41 46 48 48 42 36 24 16 22 22 17 18 16 20 26 23 19 17 15 17 24 31 31 33 41 38 33 35 28 22 24 25 29 31 31 35 38 38 35 36 37 31 29 29 27 32 32 28 36 41 42 44 36 30 34 32 28 29 28 27 28 28 27 29 30 28 25 25 24 24 24 23
27 29 32 25 16 22 23 20 25 22 20 18 12 20 33 40 49 56 56 55 46 31 23 21 23 21 19 20 18 22 26 21 17 17 17 16 22 35 34 31 38 39 36 38 31 22 23 24 25 30 31 30 30 29 27 30 33 33 31 28 26 31 32 31 35 38 40 44 42 41 40 33 26 23 25 27 28 28 31 30 29 27 25 24 24 24 24 24
29 25 29 23 15 21 22 19 24 21 18 21 18 27 41 46 52 59 64 63 49 33 26 23 23 21 20 23 22 21 23 22 20 18 17 20 24 34 40 38 38 39 39 40 34 24 22 22 22 28 32 28 25 25 23 23 26 28 29 30 31 31 30 32 34 34 36 40 42 47 45 33 23 21 22 25 25 27 30 29 27 26 25 24 24 24 24 24
29 23 27 23 15 19 22 22 26 23 18 21 24 34 50 57 55 57 67 71 55 40 34 29 26 25 23 24 22 22 21 20 22 19 18 22 20 27 54 65 55 47 41 35 31 27 24 24 23 26 27 23 24 31 29 26 25 24 25 28 29 30 33 37 40 39 39 41 43 48 49 36 22 20 21 22 24 25 26 27 27 26 25 25 24 23 22 23
23 20 24 21 13 18 23 23 28 27 19 25 36 46 62 68 57 50 58 62 53 43 39 36 33 30 29 27 24 25 23 20 22 21 21 24 22 33 67 85 77 62 43 28 30 34 28 25 28 28 24 23 29 33 32 32 31 27 26 26 26 29 32 35 41 42 41 44 44 45 49 40 22 18 21 22 23 25 25 27 28 27 25 25 24 22 20 21
20 19 22 18 13 20 25 23 28 27 24 39 53 57 66 64 50 46 50 48 46 42 37 37 37 35 33 31 29 28 25 24 24 23 22 23 34 58 81 87 80 61 39 27 30 35 31 25 29 30 21 23 31 31 29 32 32 29 28 26 27 35 40 41 42 41 41 44 43 44 48 40 24 20 22 21 21 23 25 27 27 27 26 24 23 21 21 23
24 27 27 19 13 20 25 22 22 20 25 44 50 49 60 62 51 47 44 40 41 37 32 35 37 37 37 36 34 30 27 27 24 27 27 21 42 79 91 88 79 54 40 47 45 38 33 24 26 30 25 24 28 28 29 32 30 25 24 28 33 46 59 56 43 40 45 43 38 45 49 36 23 23 22 19 20 22 26 26 26 28 26 24 24 23 24 26
27 29 28 22 19 24 31 33 28 20 24 37 36 35 44 51 56 57 47 43 45 37 32 37 39 39 39 38 38 35 32 28 23 29 31 22 42 80 90 88 84 63 60 82 79 55 36 26 26 30 31 30 30 30 32 32 29 24 25 35 44 52 61 53 41 44 50 44 38 44 46 33 23 24 23 19 20 25 29 28 26 27 26 25 26 26 26 28
23 23 23 22 24 27 34 41 33 22 23 28 27 30 33 34 47 60 56 48 46 42 38 38 40 39 37 39 38 33 33 32 28 31 34 27 34 62 84 91 86 77 82 94 86 57 34 30 31 29 31 33 31 31 31 30 32 31 33 43 51 58 59 49 45 48 47 47 46 41 38 37 32 27 23 22 25 31 32 29 28 27 26 27 28 29 31 31
25 24 24 23 26 26 28 35 30 24 28 27 22 28 31 27 31 46 57 54 47 47 43 38 41 39 34 37 32 26 33 37 33 35 39 36 32 44 73 87 80 83 91 81 64 49 36 37 43 42 39 34 30 29 28 28 32 32 38 45 46 56 64 57 52 49 44 53 56 39 34 41 35 25 25 30 33 35 32 29 29 28 29 31 32 34 35 33
30 30 32 35 33 22 22 35 38 34 35 32 27 30 30 27 24 30 45 52 48 48 41 36 41 38 32 35 29 24 31 31 34 46 48 45 40 35 50 71 73 76 74 54 42 43 39 40 54 59 49 35 31 31 28 30 32 31 37 41 37 46 61 64 60 51 46 55 54 38 34 37 30 26 32 36 33 31 30 29 29 31 33 36 36 37 37 36
33 29 34 43 37 25 30 45 47 40 36 30 28 31 29 25 24 27 36 42 42 44 39 31 34 33 30 35 31 26 29 26 30 49 56 55 54 39 33 50 60 60 52 39 41 47 40 44 63 69 56 42 35 33 31 33 34 34 36 36 33 36 45 54 56 47 42 45 41 33 33 31 27 31 34 31 27 27 29 31 33 35 37 39 41 40 38 37
37 30 32 36 31 29 36 42 38 34 31 25 23 30 31 26 27 31 34 35 32 35 38 33 32 35 36 38 33 28 34 34 30 39 47 49 49 40 31 36 43 48 46 42 45 46 38 46 61 59 51 44 36 33 35 33 33 36 35 31 30 30 33 41 45 40 37 38 32 29 34 32 28 30 31 28 28 31 34 36 37 38 40 42 43 40 38 38
37 33 30 28 26 29 32 30 29 27 22 19 21 28 30 29 32 34 35 38 37 36 41 39 34 38 41 40 37 35 43 48 44 43 46 43 39 37 34 33 37 44 49 50 53 48 38 41 46 45 46 42 33 33 34 31 37 43 38 30 28 29 30 33 34 32 32 35 35 34 36 34 30 30 33 33 34 37 38 39 40 42 44 44 42 41 40 41
39 34 28 28 26 26 26 23 22 22 21 23 27 31 32 34 39 38 35 41 50 52 52 48 41 38 35 36 45 55 60 59 52 49 49 45 41 38 36 40 42 43 47 53 57 54 49 45 40 42 48 40 31 33 31 32 49 54 40 32 30 29 29 29 27 28 26 29 35 36 34 32 32 36 40 41 40 40 40 41 43 45 46 44 43 43 43 43
Wind_Speed
7 7 7 7 7 7 6 6 6 5 4 3 2 2 1 1 2 2 2 2 1 2 2 3 4 4 6 6 7 7 5 4 2 6 6 7 11 10 10 9 8 8 7 5 4 6 6 4 2 3 5 3 1 1 2 0 1 3 4 5 5 4 2 1 2 1 2 1 4 7 8 9 6 6 5 2 6 8 5 7 8 7 7 4 6 7 10 16
7 6 6 6 6 6 5 5 5 6 5 4 3 3 2 2 2 2 1 1 2 3 3 4 4 5 6 7 9 7 4 4 1 6 7 9 11 9 9 8 7 7 7 5 5 6 5 3 1 4 5 3 1 1 3 1 1 4 4 5 5 2 2 4 4 2 2 3 2 4 7 8 5 4 6 6 9 10 10 10 11 11 11 10 9 9 11 15
7 6 6 6 6 5 4 4 5 5 5 4 5 4 3 3 1 1 0 0 1 3 4 5 5 5 5 7 10 5 4 6 4 4 6 10 10 7 8 7 6 7 6 6 6 6 5 4 2 4 5 3 1 2 3 1 1 3 3 6 2 4 3 5 3 2 3 2 1 3 4 6 4 2 5 6 10 10 13 12 11 14 14 15 14 13 14 15
7 6 6 5 5 5 4 3 3 4 4 5 6 6 6 5 2 2 2 2 3 4 6 8 7 6 6 6 9 2 4 7 3 4 7 10 8 7 8 6 6 6 5 5 5 5 5 4 3 4 4 3 1 2 4 1 0 1 2 5 3 5 2 4 3 2 3 2 2 2 3 6 5 3 5 7 9 10 12 13 14 15 15 16 15 16 17 16
7 6 5 5 4 4 3 2 2 3 4 5 6 8 8 7 4 2 3 3 4 4 7 9 9 8 5 5 7 1 4 4 1 4 8 9 7 8 8 5 6 7 4 4 4 4 5 5 4 3 4 3 2 4 3 2 1 3 2 3 4 4 3 3 3 2 2 1 2 3 4 5 3 5 9 10 11 9 4 4 10 12 11 12 14 17 17 17
7 6 5 5 4 4 3 2 2 2 2 3 4 7 9 8 6 2 1 2 2 4 7 10 7 6 4 3 5 2 5 1 3 6 9 8 7 9 8 5 7 6 3 4 4 5 6 5 5 4 4 3 3 3 1 3 1 4 2 0 1 3 2 2 3 2 1 1 4 4 3 2 4 7 10 13 17 11 0 4 1 2 3 3 12 17 15 17
7 6 5 4 4 3 3 2 1 1 1 1 1 4 7 8 6 3 2 1 2 4 8 10 5 2 3 2 3 4 4 3 4 8 8 6 7 10 8 5 7 4 3 5 6 6 5 6 5 3 4 3 3 2 1 1 3 5 4 2 1 1 1 1 3 1 0 2 3 2 3 5 10 9 7 12 18 16 6 5 4 2 3 4 11 13 14 16
7 6 5 4 3 3 2 2 1 0 1 1 2 3 5 7 6 3 2 1 3 5 8 11 7 3 1 2 4 5 1 4 6 9 7 5 6 9 7 5 6 2 4 5 5 6 5 6 5 2 4 2 1 2 0 3 5 6 5 2 2 1 2 2 2 2 2 3 3 3 7 10 11 6 8 16 17 16 12 6 7 5 5 7 10 12 13 15
7 6 5 4 3 3 2 2 1 1 1 1 1 2 4 6 5 4 3 2 4 6 8 10 8 5 1 3 6 4 1 4 8 9 6 4 5 7 7 5 4 3 4 3 3 6 4 5 4 2 3 0 1 1 1 4 3 2 2 2 3 3 3 3 3 4 3 4 2 6 12 11 6 3 11 19 16 15 13 8 7 7 8 9 10 12 12 13
7 6 5 4 3 2 2 2 2 1 0 0 1 2 4 6 6 5 4 4 5 6 7 9 9 6 3 4 6 3 3 5 8 9 6 5 5 5 6 5 3 2 4 2 3 5 3 3 1 1 2 1 2 1 1 3 1 2 0 2 2 2 3 4 5 4 3 4 5 8 13 10 3 2 11 9 3 7 9 9 9 8 11 11 10 11 12 13
7 7 6 5 3 3 3 2 3 2 2 2 2 3 4 6 7 6 5 5 6 6 7 8 8 5 4 6 5 2 5 6 7 8 6 4 4 4 5 7 5 1 3 1 1 3 3 3 1 1 1 3 4 2 0 1 1 0 1 1 3 4 5 6 7 5 4 4 5 7 14 13 6 6 16 9 4 5 7 9 10 10 11 11 12 11 11 12
7 7 6 4 3 3 3 3 3 3 2 2 2 3 5 6 8 7 6 6 6 7 7 8 6 5 5 6 2 3 3 5 6 6 6 4 4 6 7 8 5 2 2 0 1 1 2 1 2 2 1 2 3 2 2 1 0 1 2 4 5 7 8 11 10 6 6 4 3 4 12 13 11 13 19 11 6 5 6 8 9 10 10 10 11 10 10 12
7 7 6 5 3 3 3 3 3 4 3 1 2 3 4 8 10 8 6 6 6 6 7 6 5 3 5 3 3 2 2 4 6 5 5 3 4 6 7 7 5 3 1 3 4 4 5 1 1 2 3 1 1 2 3 3 1 2 4 5 4 7 8 10 9 6 6 3 3 3 8 8 9 17 15 5 8 6 7 9 10 10 9 9 10 10 10 11
7 7 6 5 4 3 4 4 3 4 3 2 1 2 5 10 12 9 5 5 4 5 6 4 4 3 5 1 3 1 2 3 5 5 4 3 3 3 5 7 6 5 6 7 6 4 4 3 4 6 3 3 3 4 4 4 3 2 3 3 5 7 2 8 8 7 7 3 3 4 6 9 9 9 10 7 8 8 8 10 10 10 10 9 10 10 10 11
6 6 6 5 4 5 6 5 4 5 5 4 5 7 9 11 12 9 5 5 4 5 5 3 3 4 4 2 2 1 3 2 3 6 5 3 4 4 1 4 5 7 7 6 6 6 4 4 6 5 3 2 4 5 4 4 4 3 3 4 5 4 2 7 8 7 5 2 6 6 4 9 13 3 8 7 7 9 10 12 10 11 11 10 10 10 10 10
5 5 5 4 4 6 7 6 6 7 8 8 9 11 12 13 12 8 5 4 5 5 4 1 2 4 4 1 2 1 2 2 4 7 6 4 4 4 2 1 2 3 2 3 5 5 3 3 2 2 3 3 4 3 4 4 5 5 5 5 4 5 4 3 5 4 3 2 8 9 6 8 9 2 7 7 8 9 11 13 13 13 11 10 9 8 8 8
5 5 4 3 4 7 8 9 9 10 11 11 11 13 13 12 9 5 5 4 4 3 2 1 2 3 3 2 1 1 2 4 6 7 6 5 4 3 3 4 3 2 3 4 5 4 3 3 1 1 3 3 2 2 4 5 4 3 4 5 6 7 6 4 2 3 3 4 5 9 9 11 14 13 8 8 10 11 12 13 13 12 11 10 9 8 7 7
6 5 4 4 6 9 10 10 11 12 12 11 11 10 9 7 4 2 5 4 4 3 3 1 2 3 1 2 0 2 4 4 5 6 6 6 5 3 4 5 4 5 5 6 7 5 3 3 3 2 3 4 3 4 5 4 3 3 4 5 7 6 7 8 1 3 3 4 6 9 10 14 18 19 17 11 9 11 12 12 12 11 10 9 9 8 7 7
7 6 5 6 8 10 11 11 12 12 12 10 9 6 4 1 3 2 5 5 2 3 2 1 1 2 0 2 3 5 5 4 5 4 4 6 6 5 5 5 5 6 7 5 5 3 1 2 3 4 3 4 4 5 6 5 5 7 7 6 9 7 9 10 1 5 0 3 7 10 11 14 16 18 20 16 8 8 12 11 9 8 7 6 7 6 6 7
9 8 7 8 9 10 11 11 12 11 10 9 7 4 2 1 1 1 5 6 3 1 2 2 2 3 2 2 6 8 5 2 2 2 4 7 6 5 7 6 6 7 7 3 1 1 1 3 4 3 2 0 1 1 4 4 4 7 7 7 9 9 10 9 3 6 1 3 7 9 10 13 16 19 19 15 10 8 10 9 6 5 4 4 4 4 5 6
11 10 9 10 10 11 10 10 10 9 8 9 8 3 2 3 3 1 3 2 2 1 2 2 3 3 2 3 6 8 3 3 3 0 4 7 4 3 4 6 7 6 3 1 1 1 2 5 3 3 5 5 3 3 2 2 3 5 6 8 8 8 9 3 5 4 1 1 6 7 11 14 16 20 17 11 8 7 6 6 5 5 4 2 2 3 3 3
12 11 11 11 11 11 10 9 9 7 6 7 6 3 3 3 1 1 2 2 2 0 2 1 2 2 1 1 4 7 3 3 3 2 6 8 3 4 1 4 7 3 2 2 2 2 4 3 2 5 5 5 5 3 1 2 4 5 5 7 7 6 6 2 6 3 2 2 6 8 10 14 18 19 12 5 3 4 5 4 4 4 4 2 2 2 1 1
12 12 12 12 12 12 10 9 7 6 6 5 5 3 3 2 2 1 2 4 1 1 1 1 2 2 1 1 3 6 4 3 2 2 9 9 3 2 3 5 6 2 2 4 3 4 4 1 4 4 2 2 2 2 1 2 4 6 6 6 7 5 5 3 2 1 4 5 7 9 9 12 14 10 2 2 1 3 3 2 2 2 3 3 3 3 3 3
13 12 12 12 12 12 11 7 4 4 5 5 5 4 3 2 1 0 2 3 1 1 1 1 1 2 2 1 4 5 3 1 1 2 10 9 2 1 2 3 4 4 2 1 4 7 3 4 3 2 2 0 1 1 3 4 4 6 7 6 8 6 5 6 4 7 8 5 3 8 9 6 5 4 2 4 3 0 1 1 2 2 2 3 4 4 6 8
13 13 13 13 12 12 10 4 3 4 3 4 4 4 3 1 1 1 2 3 1 2 2 1 1 1 1 2 3 3 2 1 1 3 7 7 4 2 1 1 3 3 1 2 4 7 1 3 1 2 1 1 2 3 3 4 5 6 3 2 5 5 5 7 8 9 8 3 2 4 8 3 2 3 2 4 4 4 3 5 8 7 6 6 6 8 9 10
14 14 14 14 12 12 8 1 2 4 1 1 1 2 3 2 2 1 2 3 2 2 1 2 2 0 1 1 2 2 2 1 2 3 3 4 3 3 2 1 2 1 2 0 3 2 1 2 0 1 2 2 3 5 3 3 5 5 1 3 3 3 4 7 7 6 6 5 1 2 5 5 4 5 2 6 5 7 8 9 11 9 9 9 9 10 10 10
13 14 14 14 13 11 6 2 4 5 1 0 1 0 2 2 1 1 2 3 2 0 1 1 1 2 1 2 3 3 3 1 1 0 2 4 2 3 3 1 1 1 1 2 3 1 3 2 1 1 2 3 4 4 2 3 5 3 1 2 3 3 6 6 5 5 6 8 6 4 6 6 6 3 6 7 5 8 9 10 11 10 11 11 10 10 9 9
13 14 14 14 12 9 6 4 5 3 1 2 2 1 1 1 1 2 3 3 0 0 1 1 0 2 1 1 2 3 3 3 2 0 1 3 2 2 4 2 2 1 2 3 4 0 2 1 3 2 3 4 2 2 2 2 5 1 2 2 3 4 7 6 5 7 5 6 6 5 7 5 5 2 6 8 5 7 7 9 11 10 11 10 9 10 9 8
13 13 14 14 12 9 7 5 3 1 2 4 1 0 2 2 2 2 3 3 0 1 0 0 1 1 2 3 3 2 1 1 2 2 1 3 1 0 2 2 2 1 1 4 4 1 2 1 1 1 3 2 2 3 3 2 3 1 1 4 5 6 7 5 6 6 4 5 5 4 6 4 5 2 3 7 4 6 5 7 9 9 10 9 9 9 8 8
14 14 13 13 10 9 8 4 3 3 3 3 1 2 3 2 2 3 3 2 1 1 1 0 1 2 5 4 2 1 1 0 2 3 2 2 1 2 1 1 2 2 3 4 4 0 3 1 1 1 2 2 3 2 1 1 1 2 3 6 7 7 6 4 4 4 4 5 1 3 3 3 4 4 2 3 3 3 5 6 7 8 9 9 8 8 8 7
15 14 13 12 9 9 6 2 4 4 3 3 3 3 3 2 2 4 3 1 0 0 1 0 1 2 5 4 2 1 2 1 3 4 2 1 2 3 2 1 1 3 4 4 3 3 4 2 2 1 2 2 1 2 2 1 1 2 4 6 7 4 4 4 3 3 4 3 2 3 2 2 4 5 3 7 6 5 6 7 7 8 8 8 7 7 7 7
14 14 12 10 9 8 5 2 4 5 4 5 4 3 3 2 3 2 1 0 1 2 2 1 2 3 4 2 2 3 3 1 3 3 2 2 2 0 1 2 2 3 3 1 1 3 3 2 2 2 0 1 3 3 3 3 3 4 5 5 6 5 3 4 3 3 4 0 4 2 1 2 8 7 4 10 9 9 9 8 7 7 7 6 7 7 6 7
14 12 10 9 9 8 5 4 5 4 5 5 4 3 3 4 3 1 2 2 1 2 2 1 2 3 4 3 1 2 2 1 2 2 0 2 2 1 2 3 3 3 3 4 5 3 0 1 3 2 2 1 3 3 1 1 1 2 3 4 5 5 5 7 5 5 5 1 5 3 3 4 10 5 6 11 10 11 10 8 7 6 5 5 5 6 7 7
12 10 7 8 8 7 6 5 4 4 5 4 4 3 3 4 2 1 1 2 2 2 1 1 4 4 3 1 2 3 1 1 2 3 2 2 2 0 2 2 2 2 3 4 4 3 3 1 1 1 1 0 3 2 3 4 4 2 2 3 4 3 5 7 6 6 7 4 1 2 1 5 6 1 9 11 10 10 8 6 5 4 4 4 4 6 7 8
11 8 6 6 7 7 6 6 4 5 5 4 3 3 4 3 2 1 1 2 2 3 2 1 2 5 2 2 1 2 1 0 2 3 3 1 2 2 2 3 3 2 3 4 2 1 4 2 2 1 1 1 1 1 2 4 4 0 1 2 3 2 3 6 8 8 7 7 4 3 3 5 1 7 10 9 8 8 7 7 5 3 4 4 4 5 7 7
10 7 4 5 7 8 7 6 5 4 4 4 3 3 2 2 2 2 2 2 2 4 6 2 2 3 2 1 2 2 1 1 3 4 1 1 2 3 2 3 3 3 2 3 2 1 4 2 3 2 1 1 2 2 1 3 2 0 1 2 0 2 3 6 8 5 4 7 5 4 4 5 1 6 9 8 7 7 7 8 6 5 6 5 5 6 7 8
8 5 3 4 8 8 7 6 5 4 3 3 3 2 1 2 2 3 2 2 1 2 6 4 1 2 3 1 1 3 1 1 2 3 1 1 1 2 2 2 1 2 3 3 2 1 3 4 2 2 1 2 2 3 2 1 3 2 2 3 2 1 1 3 5 4 4 7 5 2 4 6 5 1 6 9 6 5 7 8 7 7 7 6 6 7 9 10
6 3 1 4 8 7 5 6 5 4 3 3 3 1 1 1 1 2 2 2 2 1 3 3 1 2 2 3 2 3 3 3 2 2 3 1 1 1 2 2 1 1 3 2 2 1 3 5 0 1 0 3 2 3 3 2 1 3 3 3 2 3 2 2 3 5 6 7 7 4 3 5 7 3 6 8 4 5 8 8 8 9 10 9 9 10 12 12
4 3 2 5 9 6 5 6 4 3 3 2 2 0 1 1 2 2 2 2 2 2 2 2 1 1 1 3 3 2 1 3 4 3 2 2 1 1 2 1 1 1 2 2 3 2 2 3 1 1 1 2 3 4 2 2 2 1 3 2 0 2 4 3 2 4 6 7 8 6 3 3 4 2 4 6 6 7 8 9 10 12 13 12 11 11 12 12
2 3 0 6 10 6 5 5 3 2 2 1 2 1 1 1 2 2 2 2 1 1 2 2 1 2 1 1 2 1 0 1 3 3 1 1 2 2 3 3 2 1 1 2 3 3 2 2 3 0 2 2 2 2 2 2 1 1 3 3 1 2 2 3 3 2 4 7 7 7 7 3 2 5 5 6 7 7 7 9 10 11 13 13 11 11 11 12
2 2 1 7 10 5 4 3 0 1 1 0 1 1 1 1 1 2 2 1 2 1 2 3 2 2 3 2 1 1 2 3 2 3 2 1 1 2 4 4 4 3 2 3 2 2 2 3 5 4 4 4 1 3 4 4 2 3 3 3 3 3 2 5 5 1 1 5 5 7 10 6 2 2 5 6 5 4 6 8 9 11 13 13 11 12 14 13
3 2 1 7 10 5 3 1 2 1 1 1 1 1 1 1 1 1 1 1 1 0 1 2 2 2 2 3 2 1 3 4 2 2 2 1 2 3 3 3 4 3 3 2 1 2 2 3 5 7 7 3 4 5 3 3 2 2 3 3 3 3 3 6 6 3 1 3 2 5 10 6 2 3 6 5 3 4 7 10 10 11 12 13 14 15 16 15
2 2 2 9 9 3 3 1 1 1 1 2 0 1 1 1 0 0 1 2 1 1 1 2 1 1 1 2 2 2 1 3 3 1 2 1 2 3 2 3 4 2 3 2 1 2 1 3 4 7 7 1 6 5 3 2 1 2 3 2 1 2 2 3 5 4 4 6 5 6 9 3 4 5 4 4 4 6 9 11 12 12 12 13 16 16 16 15
2 1 1 9 9 2 2 2 1 2 2 1 1 1 1 0 0 1 1 1 0 1 2 1 0 1 1 1 3 3 2 2 2 1 2 2 2 2 2 3 3 2 2 2 2 2 2 3 3 6 7 2 1 1 2 1 1 2 0 1 1 2 3 1 3 2 5 8 7 8 9 3 2 2 3 11 13 11 11 12 13 13 13 14 15 15 15 15
1 1 1 5 8 4 0 2 2 2 2 0 1 1 0 1 1 1 1 1 1 1 2 1 1 1 1 1 2 3 2 2 1 1 1 1 1 2 2 3 3 3 4 4 5 3 3 4 3 5 6 6 5 4 2 2 3 4 1 2 2 1 1 2 5 5 5 5 6 8 10 8 6 8 13 18 17 14 14 15 15 14 15 16 15 15 15 16
2 1 0 1 4 5 2 1 2 2 1 2 1 1 1 1 2 1 1 1 0 1 2 1 1 2 2 2 4 4 3 3 1 2 2 2 1 2 2 2 1 2 4 5 4 3 3 4 4 6 7 7 8 9 6 5 7 9 7 3 1 3 2 2 4 5 6 7 7 8 10 13 14 15 17 17 15 14 15 17 17 16 16 16 16 17 17 17
1 1 2 1 1 2 2 2 3 2 1 2 1 1 2 2 1 2 1 1 1 0 2 1 1 3 1 1 4 3 1 3 2 1 2 2 1 2 2 1 0 0 2 3 2 1 3 4 2 4 7 9 11 13 11 9 9 11 10 8 3 2 4 3 6 7 8 8 7 7 12 16 17 18 17 14 14 15 16 17 17 17 17 17 18 19 20 21
1 0 1 1 1 1 1 2 3 2 1 2 1 1 1 2 2 1 0 0 1 1 2 1 2 4 3 3 4 3 3 3 3 1 0 1 2 0 2 2 2 1 2 1 1 1 4 4 1 1 6 10 13 14 13 9 8 7 7 8 7 2 3 4 7 9 8 7 9 13 17 18 17 16 14 13 14 17 18 18 18 18 19 19 21 22 23 22
1 1 1 1 1 2 2 2 2 1 0 1 0 1 1 3 2 2 1 1 1 2 2 2 0 0 2 2 3 4 5 4 2 1 1 1 1 2 2 0 2 1 1 1 2 1 3 2 2 1 6 11 11 9 6 4 4 5 4 5 7 5 2 3 6 9 9 9 12 16 19 18 13 12 13 14 16 17 17 17 18 20 21 21 23 24 22 20
0 0 1 0 1 2 1 1 2 2 1 0 1 1 1 3 2 2 1 2 2 1 2 2 3 2 1 2 4 5 4 5 3 2 1 1 1 1 1 1 1 1 1 0 1 0 1 1 2 1 7 8 2 2 2 3 2 3 4 7 8 7 6 4 5 8 9 11 14 17 18 15 9 12 16 17 17 16 17 21 21 20 21 22 23 23 21 20
1 1 1 1 1 1 1 1 2 2 0 0 1 1 0 1 3 3 1 0 2 2 0 3 4 2 1 2 4 4 5 5 4 3 2 2 3 2 1 2 3 1 1 1 0 0 1 2 0 1 7 5 3 3 4 1 3 4 6 10 11 9 8 6 6 9 11 13 16 15 12 9 10 15 18 18 18 18 20 22 22 21 23 24 23 20 20 23
1 1 0 2 1 1 1 1 1 2 1 1 2 1 1 2 3 2 2 1 2 3 2 3 5 3 3 2 1 2 4 4 3 3 2 3 3 2 1 2 3 3 1 1 1 0 1 3 3 2 5 5 1 5 11 4 4 4 5 9 10 9 9 10 10 12 13 13 13 11 8 11 15 18 20 21 23 22 20 20 20 22 23 23 21 20 22 25
Wind_Direction
60 66 69 71 71 71 70 67 74 82 92 94 81 68 42 357 351 347 0 12 26 12 346 342 331 326 327 320 317 308 322 335 37 52 49 14 340 323 321 314 316 332 335 321 289 272 262 246 238 260 250 210 223 173 164 299 341 252 242 247 253 250 254 22 267 289 342 313 135 165 184 212 206 166 170 163 225 231 219 217 225 215 217 208 114 117 134 144
54 58 61 64 65 68 66 61 66 68 71 64 50 40 19 343 344 356 28 65 52 14 353 344 327 322 320 325 329 303 272 267 244 59 37 350 334 324 320 312 308 321 323 309 285 273 269 275 246 248 252 212 183 186 191 193 290 251 261 255 256 299 31 32 346 18 356 310 125 163 192 220 230 167 160 206 230 216 225 229 219 224 224 204 160 151 157 161
47 48 54 59 61 63 61 56 57 58 57 48 34 26 14 339 311 281 277 214 337 344 337 330 316 312 304 324 340 313 234 244 231 56 11 336 331 321 319 308 301 311 308 298 297 294 292 310 280 252 254 226 177 201 213 190 264 246 266 257 280 18 49 55 10 47 39 2 192 188 189 221 236 148 159 221 250 229 231 234 221 224 224 211 184 169 171 175
40 39 46 53 62 65 63 59 52 53 45 38 33 27 23 2 308 235 233 239 289 311 317 317 301 298 292 317 342 332 230 246 212 37 341 332 334 326 321 304 303 305 289 281 284 285 280 279 260 263 262 239 177 219 231 133 309 249 249 270 357 2 334 65 46 60 53 9 278 198 169 229 223 198 203 227 254 245 240 236 231 231 228 219 191 173 178 183
34 33 38 42 56 64 67 66 51 48 36 38 41 35 30 17 355 251 228 241 283 307 320 319 297 285 277 313 341 326 243 255 104 5 329 338 345 341 327 305 318 310 274 257 261 257 254 252 244 249 254 241 197 216 225 100 344 266 235 303 353 331 309 72 75 58 55 30 260 203 206 233 197 210 227 230 242 248 262 250 242 238 246 236 187 173 180 186
25 27 32 33 40 52 58 62 49 43 34 34 42 34 28 21 11 352 212 236 293 323 338 337 308 274 252 307 350 269 254 292 40 342 335 346 357 357 338 315 325 312 251 241 248 241 240 243 238 234 250 253 229 225 160 104 248 262 227 47 337 322 323 93 101 62 28 214 213 218 243 229 211 239 234 229 239 244 326 63 333 272 312 248 166 170 183 188
18 19 25 29 28 36 42 50 57 60 42 353 347 8 16 21 15 16 63 85 344 339 351 359 355 301 244 276 330 260 254 46 17 338 340 345 6 4 345 330 330 315 234 244 231 229 233 238 243 245 256 258 241 218 63 163 204 255 260 158 190 309 247 118 88 96 1 245 243 285 292 244 235 253 252 237 240 245 238 120 106 85 84 146 161 175 190 194
14 14 20 26 19 20 25 27 35 266 250 297 304 339 7 17 14 14 28 9 354 342 355 9 14 17 254 251 287 258 210 41 351 338 343 342 359 0 357 348 330 294 235 251 232 238 241 241 246 244 246 255 245 198 11 245 206 243 264 169 178 207 175 133 116 180 218 251 281 284 258 250 246 273 279 253 247 248 242 180 146 153 162 181 189 192 196 201
13 18 25 25 16 16 25 22 23 339 279 269 305 355 359 3 358 341 321 312 336 339 351 3 6 1 287 252 278 259 93 13 340 345 349 343 341 347 3 359 322 256 234 244 248 251 238 240 239 238 266 1 199 180 6 260 221 277 283 166 188 192 172 167 194 204 220 240 253 254 255 254 244 301 279 256 250 248 239 210 179 183 197 201 203 203 202 206
19 32 39 38 29 32 44 40 46 46 35 104 31 13 350 345 336 320 304 291 311 329 337 348 357 353 295 256 267 260 56 9 345 354 351 342 337 336 358 3 346 256 241 219 242 250 252 283 282 221 292 112 175 154 311 265 317 0 179 173 218 209 189 198 223 211 219 245 229 249 268 265 189 201 266 256 237 231 221 212 204 209 220 215 209 208 208 211
34 48 51 51 45 45 51 45 49 55 69 68 45 14 353 338 323 311 295 286 295 305 317 331 341 339 293 269 275 310 45 7 339 354 352 337 346 356 8 8 9 295 270 228 236 275 286 310 102 158 264 154 153 128 110 281 343 16 142 216 228 221 221 215 226 217 215 230 211 256 279 266 200 203 250 245 124 166 199 215 214 221 230 224 219 212 209 214
45 49 50 50 45 46 37 33 41 38 51 63 46 31 13 357 336 314 290 285 288 290 305 319 327 331 289 272 321 18 27 1 342 352 353 352 16 22 21 13 19 7 295 237 94 99 147 190 198 154 44 172 164 128 131 143 196 145 189 259 229 223 237 222 215 208 214 208 162 269 284 262 206 212 246 234 161 168 207 227 222 222 232 228 223 218 214 214
41 40 37 33 29 30 15 15 24 19 24 44 55 52 20 4 352 332 294 281 285 295 303 310 330 323 275 270 68 9 316 352 355 350 341 358 23 25 30 27 39 56 35 105 107 131 140 147 250 110 47 297 133 105 140 145 160 174 212 265 260 246 240 206 196 184 203 189 127 249 290 285 218 216 233 185 157 189 215 228 226 223 225 223 220 217 218 214
30 29 22 15 19 16 358 347 343 351 346 298 272 296 333 343 347 345 311 283 285 314 317 311 335 290 260 71 101 307 332 344 0 356 336 347 336 343 37 42 58 92 92 93 102 121 131 116 120 111 54 1 96 141 170 163 194 211 214 242 249 263 217 157 171 179 193 164 151 221 265 289 293 236 198 151 166 197 224 234 230 225 216 211 216 216 218 215
19 19 11 8 21 17 3 352 340 335 322 287 270 283 305 318 331 337 317 288 284 323 334 306 327 289 252 132 156 290 8 344 2 359 348 6 327 302 19 52 70 95 92 87 100 108 123 133 131 121 85 63 138 178 208 200 211 218 245 247 225 247 192 152 165 189 205 128 173 211 249 275 307 338 148 157 184 202 238 254 251 245 229 211 209 212 218 218
12 14 10 12 23 15 3 356 346 333 317 291 280 287 296 306 314 320 317 291 274 316 341 284 330 301 273 103 153 236 10 357 358 351 348 6 339 324 321 206 114 101 100 110 116 120 143 133 105 125 131 167 192 229 259 241 227 200 225 272 266 262 271 176 156 188 231 135 181 215 264 285 299 337 147 171 198 214 243 261 267 265 251 232 218 213 215 216
15 19 15 12 8 357 347 340 331 323 315 300 292 291 293 300 297 298 325 300 275 321 333 322 338 280 272 73 153 222 19 350 349 346 336 339 337 330 280 237 207 208 213 200 196 198 186 149 152 196 181 205 217 256 265 263 253 196 207 267 276 267 279 271 171 142 182 194 218 225 240 267 277 280 265 212 203 227 249 263 274 277 267 255 244 230 223 221
21 24 13 353 342 340 335 332 329 327 325 315 309 303 298 298 269 280 346 320 267 265 254 312 316 244 210 73 299 350 355 321 332 343 330 325 323 307 274 261 243 227 220 213 212 215 204 182 202 222 204 205 204 217 247 288 318 312 293 287 294 284 274 278 264 122 177 201 248 250 246 262 273 283 286 267 221 226 253 274 285 286 276 266 259 249 242 241
22 20 3 345 337 337 337 336 336 336 336 333 329 321 293 251 190 168 29 10 289 242 243 341 318 267 320 33 347 341 327 303 318 333 335 327 313 284 266 264 247 234 239 226 191 193 241 204 208 240 232 210 210 220 254 311 342 310 305 296 293 292 280 286 49 98 275 249 254 262 265 271 280 284 287 295 283 246 266 283 288 290 282 270 265 257 253 256
19 11 358 350 343 340 339 337 340 342 347 357 352 324 261 250 228 170 56 35 29 351 316 351 333 295 290 357 353 338 312 259 289 327 349 334 320 280 250 240 236 232 242 256 164 119 304 253 236 257 310 20 191 238 286 324 337 296 290 283 277 279 281 285 86 97 34 295 265 268 275 279 284 281 282 300 308 284 287 294 298 305 298 282 273 263 261 263
17 9 359 353 346 340 336 335 341 346 356 11 5 335 336 355 325 330 32 36 74 356 302 5 332 293 310 343 350 347 316 218 245 260 4 343 311 253 222 211 240 234 193 329 325 87 259 255 262 30 40 54 64 43 358 311 295 278 270 275 276 275 282 309 88 109 123 295 281 287 290 283 280 280 286 302 305 300 312 315 322 341 338 321 294 276 271 268
16 10 2 355 349 343 338 336 343 353 4 16 18 22 51 32 358 33 331 279 119 118 275 335 288 268 318 291 346 351 299 239 237 173 10 345 242 216 204 212 246 245 125 213 246 233 235 237 55 59 66 79 80 67 48 266 265 261 259 270 275 284 300 25 96 123 165 235 294 308 302 286 280 283 292 312 310 313 325 329 336 344 344 357 21 349 317 303
11 8 3 357 352 346 339 338 347 4 19 31 40 55 81 89 99 107 284 277 167 152 245 314 288 299 29 148 4 342 278 270 258 104 14 343 233 220 305 255 257 271 224 232 251 276 264 81 65 65 84 104 101 100 175 257 252 243 249 263 273 305 323 297 124 132 240 238 289 303 288 278 279 280 287 119 239 312 321 312 307 311 339 5 10 1 353 4
9 6 3 358 354 346 337 336 354 14 36 56 73 85 104 117 83 346 274 275 244 149 131 27 315 316 355 3 342 319 280 317 293 17 7 344 304 286 289 288 281 258 235 238 269 272 280 62 73 97 86 229 237 180 212 253 267 248 241 254 279 308 322 294 312 316 284 243 266 291 281 269 260 258 116 137 181 162 16 121 111 91 47 14 1 24 26 22
6 4 4 359 355 350 338 337 33 18 37 59 75 93 92 105 99 299 275 271 239 146 142 155 190 281 353 301 302 313 298 304 291 350 0 350 335 304 253 0 283 261 102 88 272 270 293 63 91 162 147 219 246 249 228 244 282 276 255 326 321 325 321 302 317 322 304 248 148 326 311 297 194 273 358 100 125 103 93 91 83 75 63 46 35 44 43 39
2 1 1 359 357 354 343 329 28 349 335 71 69 108 83 80 91 38 285 267 229 134 149 174 182 291 20 306 329 334 265 190 77 16 358 349 324 282 281 163 223 351 63 129 280 284 88 90 252 215 212 212 242 261 224 191 274 286 10 37 0 329 308 305 314 316 301 289 303 356 297 286 282 280 110 104 96 93 93 82 75 67 61 57 50 50 46 42
0 358 357 357 358 357 351 319 337 336 302 192 292 169 83 66 52 27 285 255 212 119 300 154 190 298 0 4 343 299 283 5 80 69 2 347 338 237 264 262 224 42 88 282 291 180 111 125 185 208 226 232 247 265 178 180 270 288 100 13 336 303 289 295 297 276 276 297 293 227 230 268 285 260 129 131 112 90 87 78 74 68 63 60 55 53 46 41
358 356 354 354 353 358 359 330 330 343 318 315 304 224 42 355 303 290 282 269 228 11 310 102 112 309 325 325 301 280 324 347 280 92 55 312 329 225 247 307 317 355 130 259 280 5 81 160 187 193 226 248 274 28 58 235 263 321 82 312 305 287 276 271 269 267 273 300 292 201 196 257 274 184 142 162 133 80 85 84 75 66 61 56 50 47 42 40
355 354 353 351 350 353 351 344 355 0 322 328 324 236 330 317 273 251 256 270 313 96 326 95 168 302 302 253 234 235 296 318 313 11 154 233 317 276 272 347 331 314 171 242 272 336 58 27 293 244 245 291 32 51 33 280 257 0 12 269 259 246 247 246 248 265 272 268 272 171 177 259 285 270 187 181 140 74 100 94 73 63 55 47 41 36 31 33
351 351 350 351 354 349 341 4 37 14 349 347 342 330 313 279 252 252 249 270 0 116 192 205 214 310 326 298 239 195 249 284 354 322 236 190 200 178 148 346 252 239 216 223 256 202 101 65 296 290 299 0 32 50 33 302 300 326 279 267 264 232 213 224 235 255 259 241 239 111 180 269 291 292 337 129 119 83 112 96 68 56 46 38 31 26 21 23
347 346 348 354 358 349 340 14 17 2 3 345 321 305 282 239 239 268 272 242 71 1 217 121 18 343 352 340 296 347 333 347 359 329 305 173 225 198 186 241 239 256 234 208 218 171 137 185 178 79 353 345 291 226 178 206 250 277 269 278 288 254 202 208 199 203 243 251 73 93 212 262 260 280 33 101 112 84 91 86 66 48 37 31 23 19 19 17
343 342 346 353 358 357 357 350 345 346 345 334 306 263 261 258 246 263 342 308 255 347 9 24 18 359 350 321 257 329 330 325 6 1 357 324 281 216 350 342 3 298 268 0 264 191 164 161 112 92 47 265 265 247 188 186 200 239 263 284 299 301 274 255 245 241 260 162 107 121 327 267 257 276 68 111 118 93 87 83 70 51 31 25 21 18 19 17
341 341 342 349 355 3 6 341 330 334 336 323 276 249 272 283 284 56 27 330 325 8 5 300 305 314 312 295 292 339 290 261 2 6 312 283 266 91 54 23 358 299 291 343 322 285 217 109 133 159 150 163 263 275 262 199 213 260 297 318 310 317 308 290 289 286 288 79 123 109 22 276 263 281 96 113 111 97 94 91 82 61 28 14 17 17 18 19
340 342 341 348 354 360 358 342 327 326 324 298 257 259 267 273 304 77 324 330 11 347 289 308 306 283 267 292 10 0 274 184 2 322 276 241 253 305 81 68 13 303 273 298 317 315 289 263 162 182 80 102 251 294 344 319 300 310 359 325 291 301 299 293 304 302 299 305 176 125 11 270 275 71 113 116 106 99 95 93 88 58 19 359 7 13 14 14
341 343 339 344 352 354 351 342 334 326 310 278 253 258 262 284 342 15 318 353 17 328 290 170 284 280 230 147 78 33 344 74 20 323 282 267 324 350 36 53 34 355 295 292 356 353 262 255 85 71 351 309 272 33 12 302 284 71 32 280 266 315 302 284 293 295 299 300 271 190 224 268 256 116 122 120 113 107 86 69 60 29 7 350 357 13 12 8
341 337 332 342 349 351 346 339 336 325 300 270 255 262 278 353 6 358 358 351 350 326 305 258 218 286 291 138 125 95 92 282 331 328 260 184 17 29 47 45 28 4 347 320 341 0 278 260 120 149 207 35 7 13 353 310 319 136 272 289 344 348 313 288 287 286 285 287 263 195 232 266 221 129 137 142 132 110 69 43 24 5 0 352 359 10 5 360
335 320 317 347 348 347 343 341 337 311 281 259 263 291 3 56 12 1 20 345 317 312 304 303 37 337 330 331 54 66 21 275 289 310 293 160 65 53 59 73 33 351 28 352 313 48 308 286 152 160 212 102 46 317 267 299 326 287 284 341 348 282 276 274 283 297 288 278 271 246 270 283 293 266 161 160 137 74 35 18 5 359 0 356 359 3 358 355
323 280 253 350 346 343 342 341 331 296 263 250 257 287 26 53 28 12 16 337 303 261 292 306 3 18 348 325 355 47 349 331 344 320 321 326 92 41 11 66 88 10 31 335 290 70 307 288 188 99 54 122 156 262 244 178 304 308 313 329 309 282 266 232 267 305 300 288 286 288 291 281 281 264 160 155 113 41 16 8 1 359 359 358 357 355 352 348
306 250 210 358 344 339 347 337 311 275 255 257 284 1 29 31 65 44 2 329 295 284 300 331 10 3 348 325 337 30 352 333 341 329 328 342 13 47 8 15 81 70 20 319 309 348 292 278 305 75 103 129 188 225 245 156 135 257 274 247 164 295 285 277 295 306 294 290 292 291 286 273 293 357 110 115 69 29 9 5 0 358 356 352 351 347 343 342
290 259 195 9 350 343 346 328 281 265 279 304 346 21 40 34 82 73 15 341 318 313 336 2 353 301 315 330 316 336 320 297 311 308 313 349 358 53 46 10 8 59 319 277 283 297 255 240 283 202 150 252 235 204 330 5 82 234 242 228 210 221 256 286 277 260 275 281 290 293 285 281 20 33 65 75 48 25 13 5 356 353 349 343 341 339 337 337
264 273 65 8 351 339 322 316 325 349 315 95 31 48 53 15 54 84 67 353 332 38 358 333 302 295 317 310 274 338 298 272 274 280 279 324 355 34 51 10 351 359 298 252 247 297 295 259 282 287 268 279 339 65 28 18 3 307 282 282 295 278 280 287 272 203 250 275 291 297 287 297 0 68 77 61 35 25 19 4 356 350 343 338 337 337 336 333
272 299 6 354 350 335 294 301 100 342 303 28 30 55 40 344 306 50 105 196 282 223 198 279 274 276 294 303 320 339 298 283 264 261 281 343 19 23 43 359 335 324 292 288 96 47 334 280 278 280 275 288 72 81 55 22 355 316 283 291 319 298 273 278 286 334 344 269 300 290 275 292 11 84 77 59 49 45 23 7 359 347 339 336 335 334 333 328
306 320 350 352 352 319 275 326 139 261 50 72 54 111 65 322 232 308 196 197 226 249 234 240 254 275 297 337 320 304 305 283 265 286 315 330 38 42 25 342 320 292 275 282 85 68 311 262 267 280 276 162 100 100 86 54 298 249 234 229 274 302 319 302 297 330 313 275 273 273 268 283 85 114 91 34 11 17 13 5 355 341 335 333 330 328 326 323
336 293 312 355 358 319 259 4 4 346 52 119 217 123 125 256 322 291 257 208 230 281 276 277 341 289 328 0 296 289 337 308 281 15 358 328 35 73 36 354 328 332 9 0 4 16 294 265 292 302 299 298 115 108 106 129 250 275 252 121 88 50 62 0 286 288 277 262 252 260 270 289 112 153 342 342 341 348 358 357 348 337 330 326 324 323 323 323
295 234 203 2 18 36 41 17 346 336 28 289 285 57 150 175 86 335 327 343 324 307 295 321 34 308 297 311 268 264 266 270 299 40 21 311 51 114 74 15 334 349 33 10 336 321 286 291 298 298 307 312 314 328 349 328 313 311 309 116 108 110 135 274 282 269 264 271 265 260 269 292 314 325 330 330 334 346 351 344 336 330 325 322 322 323 325 326
296 338 284 357 39 52 81 66 336 324 3 322 303 67 321 310 119 144 274 269 119 289 277 289 15 267 244 255 273 263 226 217 262 334 313 299 16 101 90 29 342 2 15 345 314 296 286 284 269 267 276 286 300 311 322 326 311 302 307 320 140 146 163 277 271 266 296 311 286 271 291 306 315 322 323 326 340 349 341 333 329 326 324 324 323 324 326 325
303 326 6 333 24 56 96 82 11 5 12 322 332 67 337 318 106 152 217 252 73 284 264 234 220 253 249 297 295 290 233 211 216 293 305 284 322 84 136 152 108 352 331 313 281 282 276 269 278 277 266 273 289 297 302 306 297 297 313 323 317 144 146 208 247 272 313 317 288 305 326 318 312 317 325 340 352 343 332 328 327 326 326 327 325 325 325 324
353 47 42 329 308 20 38 27 14 18 23 325 336 70 315 312 329 325 211 142 151 213 250 215 202 247 272 310 312 312 306 275 228 186 319 296 321 336 172 144 106 172 248 232 122 353 281 269 31 11 272 277 278 279 287 291 291 300 314 320 325 337 164 210 254 280 302 297 287 310 319 309 306 321 340 356 349 334 328 326 325 327 328 327 326 325 324 324
43 104 91 311 328 32 26 344 325 306 344 342 237 149 297 303 330 7 43 224 201 166 226 283 47 211 280 292 290 295 318 321 289 248 25 355 309 301 285 56 106 161 239 184 114 15 283 269 97 173 278 279 270 272 283 273 288 314 330 345 347 343 311 257 272 292 298 287 290 304 307 301 309 340 353 348 338 330 327 326 328 329 328 328 326 323 323 328
328 39 87 195 106 74 65 266 274 266 180 245 250 114 286 291 330 10 37 261 290 125 172 290 4 37 333 282 260 276 337 356 324 318 5 324 293 309 318 353 49 104 224 162 96 62 272 327 92 199 287 293 252 166 196 208 274 338 31 28 7 359 359 337 302 312 311 300 301 306 303 299 326 357 345 334 333 334 332 331 329 328 328 326 322 321 327 334
26 20 12 263 174 121 228 231 258 281 214 154 357 49 278 309 0 350 343 35 344 6 93 321 340 339 239 241 258 289 9 13 333 331 348 302 306 333 335 345 350 328 180 151 97 196 238 282 332 272 300 310 116 147 262 237 110 89 51 26 8 360 357 343 327 327 321 313 312 309 305 312 342 346 334 329 335 337 334 332 328 326 326 322 320 327 334 334
128 70 52 294 273 148 268 273 244 291 4 52 21 23 317 2 34 343 321 91 73 30 13 333 326 305 267 263 301 351 14 2 335 346 340 287 284 307 320 6 1 336 335 145 214 333 333 297 307 326 305 304 28 329 311 304 135 120 58 30 9 0 354 341 333 326 317 314 313 310 320 337 340 338 333 332 335 335 334 333 327 323 321 320 325 334 333 328